Regional Weather Roundup
Issued by NWS

Current Version | Previous Version | Text Only | Print | Product List | Glossary On
Versions: 1 2 3 4 5 6 7 8 9 10 11 12 13 14 15 16 17 18 19 20 21 22 23 24 25 26 27 28 29 30 31 32 33 34 35 36 37 38 39 40 41 42 43 44 45 46 47 48 49 50
000
ASUS43 KTOP 281808
RWRKS

WEATHER ROUNDUP FOR KANSAS
NATIONAL WEATHER SERVICE GOODLAND KS
100 PM CDT WED OCT 28 2020

NOTE:  "FAIR" INDICATES FEW OR NO CLOUDS BELOW 12,000 FEET WITH NO
SIGNIFICANT WEATHER AND/OR OBSTRUCTIONS TO VISIBILITY.

KSZ001>006-013>018-027>032-041>047-281900-
NORTHWEST KANSAS

CITY           SKY/WX    TMP DP  RH WIND       PRES   REMARKS
GOODLAND       PTSUNNY   38  26  62 NW13      30.01S WCI  30
6HR MIN TEMP:  21; 6HR MAX TEMP:  38;

HAYS           PTSUNNY   48  17  29 N10       29.98F
HILL CITY      PTSUNNY   43  26  51 S8        30.04S
6HR MIN TEMP:  25; 6HR MAX TEMP:  43;

RUSSELL        PTSUNNY   49  15  25 CALM      30.00S
6HR MIN TEMP:  27; 6HR MAX TEMP:  50;

$$

KSZ061>065-074>080-084>089-281900-
SOUTHWEST KANSAS

CITY           SKY/WX    TMP DP  RH WIND       PRES   REMARKS
DODGE CITY     CLOUDY    41  29  62 NE8       29.99F
6HR MIN TEMP:  32; 6HR MAX TEMP:  41; 6HR PCP:  0.04;

ELKHART        DRIZZLE   37  28  72 N13G21    29.97F WCI  28
GARDEN CITY    CLOUDY    41  20  43 N7        29.99F
6HR MIN TEMP:  30; 6HR MAX TEMP:  42;

GREAT BEND     LGT RAIN  46  24  42 CALM      30.02F
LIBERAL        CLOUDY    35  30  82 N13       29.97F WCI  26
PRATT          CLOUDY    39  29  65 N8        29.99F
6HR MIN TEMP:  33; 6HR MAX TEMP:  39;

$$

KSZ066>073-081>083-090>101-281900-
SOUTHEAST KANSAS

CITY           SKY/WX    TMP DP  RH WIND       PRES   REMARKS
CHANUTE        CLOUDY    40  37  89 N10       29.99F WCI  33
6HR MIN TEMP:  34; 6HR MAX TEMP:  40;

COFFEYVILLE    CLOUDY    41  40  96 N10       29.98F
6HR MIN TEMP:  35; 6HR MAX TEMP:  41; 6HR PCP:  0.07;

HUTCHINSON     LGT RAIN  38  31  76 N6        30.00F
6HR MIN TEMP:  31; 6HR MAX TEMP:  39; 6HR PCP:  0.02;

MEDICINE LODGE   N/A     37  31  78 N10       29.98F WCI  30
NEWTON         CLOUDY    37  28  70 NE8       30.00F
PARSONS          N/A    N/A N/A N/A MISG      29.99F
WICHITA INTL   LGT RAIN  35  32  88 NE12      29.98F FOG     WCI  27
6HR MIN TEMP:  33; 6HR MAX TEMP:  35; 6HR PCP:  0.07;

WICHITA JABRA  RAIN      36  32  85 NE9       29.99S FOG
6HR MIN TEMP:  32; 6HR MAX TEMP:  36; 6HR PCP:  0.04;

WICHITA MCCONL LGT RAIN  35  32  89 NE14      29.98F WCI  25
WINFIELD       LGT RAIN  34  33  96 NE15      29.94F FOG     WCI  24
6HR MIN TEMP:  33; 6HR MAX TEMP:  34; 6HR PCP:  0.46;

$$

KSZ007>012-019>026-033>040-048>060-102>105-281900-
NORTHEAST KANSAS

CITY           SKY/WX    TMP DP  RH WIND       PRES   REMARKS
CONCORDIA      PTSUNNY   50  21  32 CALM      30.01S
6HR MIN TEMP:  30; 6HR MAX TEMP:  50;

EMPORIA        CLOUDY    43  32  65 NE8       30.01F
6HR MIN TEMP:  35; 6HR MAX TEMP:  44;

LAWRENCE       CLOUDY    46  29  51 CALM      30.05F
6HR MIN TEMP:  35; 6HR MAX TEMP:  46;

MANHATTAN      PTSUNNY   45  26  47 CALM      30.03F
6HR MIN TEMP:  26; 6HR MAX TEMP:  45;

MARYSVILLE     MOSUNNY   48  27  43 CALM      30.00F
OLATHE IND     CLOUDY    44  34  67 VRB5      30.06F
6HR MIN TEMP:  35; 6HR MAX TEMP:  44;

OLATHE EXE     CLOUDY    44  35  70 NE6       30.05S
6HR MIN TEMP:  35; 6HR MAX TEMP:  44;

SALINA         CLOUDY    43  25  49 CALM      30.04S
6HR MIN TEMP:  27; 6HR MAX TEMP:  43;

TOPEKA BILLARD PTSUNNY   43  28  55 CALM      30.03F
6HR MIN TEMP:  32; 6HR MAX TEMP:  44;

TOPEKA FORBES  PTSUNNY   44  29  55 N6        30.02F
6HR MIN TEMP:  32; 6HR MAX TEMP:  44;

$$




USA.gov is the U.S. government's official web portal to all federal, state and local government web resources and services.